This is the latest recevied weather packets stored in our database for station/object KD9DOE. If no packets are shown the sender has not sent any weather packets the latest 10 day(s).
| Time | Temp. | Humidity | Pressure | Rain* | Wind** | Luminosity | Snow |
|---|---|---|---|---|---|---|---|
| 1778115099 | 7.78° C | 41% | 1015 hPa | 0 mm | - | 5 W/m² | - |
| 1778114796 | 7.78° C | 41% | 1014.8 hPa | 0 mm | - | 7 W/m² | - |
| 1778114494 | 7.78° C | 41% | 1014.7 hPa | 0 mm | - | 9 W/m² | - |
| 1778114190 | 7.78° C | 39% | 1014.8 hPa | 0 mm | - | 12 W/m² | - |
| 1778113890 | 7.78° C | 39% | 1014.8 hPa | 0 mm | - | 14 W/m² | - |
| 1778113587 | 7.78° C | 38% | 1014.7 hPa | 0 mm | - | 17 W/m² | - |
| 1778113282 | 7.78° C | 39% | 1014.8 hPa | 0 mm | - | 17 W/m² | - |
| 1778112980 | 7.78° C | 40% | 1014.8 hPa | 0 mm | - | 23 W/m² | - |
| 1778112677 | 7.78° C | 39% | 1014.9 hPa | 0 mm | - | 27 W/m² | - |
| 1778112373 | 8.33° C | 40% | 1014.7 hPa | 0 mm | - | 28 W/m² | - |
| 1778112068 | 8.33° C | 40% | 1014.7 hPa | 0 mm | - | 30 W/m² | - |
| 1778111767 | 8.33° C | 40% | 1014.6 hPa | 0 mm | - | 37 W/m² | - |
| 1778111466 | 8.33° C | 40% | 1014.7 hPa | 0 mm | - | 37 W/m² | - |
| 1778111164 | 8.33° C | 40% | 1014.6 hPa | 0 mm | - | 39 W/m² | - |
| 1778110861 | 8.33° C | 40% | 1014.8 hPa | 0 mm | - | 49 W/m² | - |
| 1778110558 | 8.33° C | 40% | 1014.6 hPa | 0 mm | - | 39 W/m² | - |
| 1778110255 | 8.33° C | 39% | 1015 hPa | 0 mm | - | 28 W/m² | - |
| 1778109951 | 8.89° C | 39% | 1014.8 hPa | 0 mm | - | 33 W/m² | - |
| 1778109646 | 8.89° C | 37% | 1014.6 hPa | 0 mm | - | 48 W/m² | - |
| 1778109344 | 9.44° C | 37% | 1014.7 hPa | 0 mm | - | 94 W/m² | - |
| 1778109042 | 8.89° C | 38% | 1014.5 hPa | 0 mm | - | 89 W/m² | - |
| 1778108738 | 9.44° C | 38% | 1014.5 hPa | 0 mm | - | 70 W/m² | - |
| 1778108436 | 9.44° C | 38% | 1014.6 hPa | 0 mm | - | 80 W/m² | - |
| 1778108132 | 10° C | 36% | 1014.6 hPa | 0 mm | - | 77 W/m² | - |
| 1778107828 | 10.56° C | 35% | 1014.3 hPa | 0 mm | - | 146 W/m² | - |
* Rain latest hour (hover to see other rain measurements)
** Current wind speed in m/s (hover to see current wind gust speed)